Simultaneous Nadir Overpasses (SNOs) Predictions

Prediction of SNOs between AQUA and GOES-15 Satellite Orbit:

Table of predicted SNOs for the next 14.0 days since TLE Epoch: 8/1/2015
Index Date Time (AQUA) AQUA Lat,Lon GOES-15 Lat,Lon Distance(km) Time Diff (sec)
1 08/02/2015 22:23:05 0.87,-131.96 0.23,-135.07 353.47 80
2 08/03/2015 10:44:21 0.18,-137.12 -0.25,-135.05 235.66 80
3 08/05/2015 10:32:10 -0.43,-134.17 -0.25,-135.02 96.94 80
4 08/05/2015 22:53:35 -0.66,-139.37 0.26,-135.03 492.96 80
5 08/07/2015 10:19:59 -1.05,-131.22 -0.25,-134.99 428.98 80
6 08/07/2015 22:41:24 -0.03,-136.42 0.26,-135.00 161.07 80
7 08/09/2015 22:29:13 0.60,-133.47 0.26,-134.96 170.33 80
8 08/10/2015 10:50:27 0.51,-138.62 -0.28,-134.93 419.49 80
9 08/12/2015 10:38:17 -0.13,-135.67 -0.28,-134.89 88.51 80
10 08/14/2015 10:26:05 -0.72,-132.71 -0.28,-134.84 242.29 80
11 08/14/2015 22:47:29 -0.34,-137.91 0.29,-134.85 347.70 80




NCC Satellite Simultaneous Nadir Overpasses (SNOs) Prediction Service
